Current Version              Previous Version:    01  02  03  04  05  06  07  08  09  10  11  12  13  14  15  16  17  18  19  20  21  22  23  24  25  26  27  28  29  30  
   31  32  33  34  35  36  37  38  39  40  41  42  43  44  45  46  47  48  49  50  51  52  53  54  55  56  57  58  59  60  

[Printable]
195
ASUS44 KFWD 251710
RWRTX
NORTH TEXAS HOURLY WEATHER ROUNDUP
NATIONAL WEATHER SERVICE FORT WORTH TX
1100 AM CST SUN JAN 25 2015

NOTE: "FAIR" INDICATES FEW OR NO CLOUDS BELOW 12,000 FEET WITH NO
SIGNIFICANT WEATHER AND/OR OBSTRUCTIONS TO VISIBILITY.

TXZ118-119-251800-
DALLAS/FORT WORTH METROPLEX

CITY           SKY/WX    TMP DP  RH WIND       PRES   REMARKS
DFW AIRPORT    MOSUNNY   59  35  40 NW16G28   30.04R
DALLAS LOVE    MOSUNNY   59  34  39 NW16G29   30.04R
FTW MEACHAM    SUNNY     59  34  39 NW24G32   30.06R
DAL-EXECUTIVE  SUNNY     61  35  37 NW20G26   30.04R
FTW-ALLIANCE   MOSUNNY   59  32  36 NW16G28   30.06R
FTW-SPINKS     SUNNY     59  34  38 NW20G30   30.09R
ARLINGTON      SUNNY     60  33  36 NW18G24   30.06R
GRAND PRAIRIE  SUNNY     57  36  44 E7        30.07R
ADDISON        SUNNY     57  34  41 NW14G24   30.06R
MESQUITE       SUNNY     57  34  41 NW15G22   30.04R
LANCASTER      SUNNY     57  35  43 NW17G24   30.06R
$$

TXZ091>094-102>105-117-120-121-131>134-251800-
NORTH CENTRAL TEXAS

CITY           SKY/WX    TMP DP  RH WIND       PRES   REMARKS
SHRMAN/DENISON SUNNY     57  37  46 NW21G33   30.02S
GAINESVILLE    SUNNY     57  31  37 NW22G29   30.07R
BOWIE          SUNNY     57  28  32 NW24G36   30.08R
BRIDGEPORT     SUNNY     58  35  42 NW16G22   30.11R
DECATUR        SUNNY     58  29  33 NW20G28   30.07S
DENTON         SUNNY     59  32  36 NW20G32   30.05R
MCKINNEY       SUNNY     59  35  40 NW22G36   30.03R
GREENVILLE     SUNNY     59  34  38 NW20G25   30.01R
ROCKWALL       SUNNY     58  37  44 N12G22    30.02R
TERRELL        SUNNY     59  37  44 NW20      30.03R
WAXAHACHIE     SUNNY     58  38  48 NW18G26   30.07R
CLEBURNE       SUNNY     59  34  38 NW15G25   30.09S
GRANBURY       SUNNY     58  36  44 NW12G20   30.12R
$$

TXZ083>090-098>101-113>116-127>130-139>142-154-155-251800-
WESTERN NORTH TEXAS

CITY           SKY/WX    TMP DP  RH WIND       PRES   REMARKS
WICHITA FALLS  SUNNY     57  30  35 NW20G26   30.10F
WF-KICKAPOO    SUNNY     50  23  34 NW18G25   30.12S
VERNON         SUNNY     57  22  25 NW22G28   30.15S
ABILENE        SUNNY     55  30  38 N20       30.18R
ABILENE-DYESS  SUNNY     55  31  41 N18G24    30.18R
BRECKENRIDGE   SUNNY     59  29  32 N15G23    30.14S HAZE
GRAHAM         SUNNY     58  32  37 NW14G25   30.11F
MINERAL WELLS  SUNNY     59  32  36 NW20      30.09S
STEPHENVILLE   SUNNY     57  33  39 NW18G26   30.14R
COMANCHE       SUNNY     56  35  44 N20G26    30.15R
BROWNWOOD      SUNNY     57  32  38 N14G23    30.15R
COLEMAN        SUNNY     56  36  47 N20       30.16R
BRADY          SUNNY     55  36  47 N18       30.14R
$$

TXZ143>147-156>162-174-175-251800-
CENTRAL TEXAS

CITY           SKY/WX    TMP DP  RH WIND       PRES   REMARKS
WACO           SUNNY     59  38  45 N16       30.08R
WACO-TSTC      SUNNY     61  39  44 N15G21    30.08R
WACO-MCGREGOR  SUNNY     61  43  51 N20       30.10R
HILLSBORO      SUNNY     60  38  44 NW21G28   30.07R
CORSICANA      SUNNY     62  39  42 N16G22    30.06R
MEXIA          SUNNY     60  40  47 N16G22    30.05R
HEARNE         SUNNY     57  42  55 NW9       30.08S
CAMERON        SUNNY     60  42  52 N17G23    30.08S
TEMPLE         SUNNY     61  37  41 N16G26    30.08R
KILLEEN        SUNNY     60  36  41 N21G29    30.09R
KILLEEN-SKYLRK SUNNY     61  36  39 NW16G25   30.07S
FORT HOOD      SUNNY     60  37  42 MISG      30.09R
GATESVILLE     SUNNY     59  37  44 N14       30.12R
HAMILTON       SUNNY     59  35  40 N21       30.12R
LAMPASAS       SUNNY     60  37  42 N14G22    30.10R
$$

TXZ095>097-106>112-122>126-135>138-148>153-164>167-251800-
EAST TEXAS

CITY           SKY/WX    TMP DP  RH WIND       PRES   REMARKS
PARIS          SUNNY     57  37  47 NW17G26   29.96R
SULPHUR SPRNGS SUNNY     58  38  47 NW16G23   30.01R
MOUNT PLEASANT SUNNY     58  37  45 NW20G26   29.96R
GILMER         SUNNY     58  37  43 NW12G20   29.96R
MINEOLA        SUNNY     59  34  38 NW17G23   30.00R
TYLER          SUNNY     60  37  42 NW21G30   29.99R
LONGVIEW       SUNNY     59  39  47 NW13      29.96R
MARSHALL       SUNNY     58  39  48 NW7G16    29.96S
ATHENS         SUNNY     55  37  50 N8        30.02R
PALESTINE      SUNNY     59  40  50 NW9G18    30.03F
HENDERSON      SUNNY     59  38  45 NW12G17   29.99S
NACOGDOCHES    SUNNY     57  39  51 NW8       30.01R
LUFKIN         SUNNY     60  40  47 NW10      30.01R
$$

SUPPLEMENTAL OBSERVATIONS (CENTRAL)

CITY           SKY/WX    TMP DP  RH WIND       PRES   REMARKS
CADDO GRASSLND   N/A     61  34  36 NW14G26     N/A
PAT MAYSE LAKE   N/A     57  34  41 W20         N/A
GREENVILLE       N/A     59  34  38 NW18G25     N/A
CEDAR HILL       N/A     61  36  39 NW8G16      N/A
PALESTINE        N/A     63  37  39 N12         N/A
MCGREGOR         N/A     61  37  41 N12G20      N/A
TEMPLE           N/A     61  39  44 NW2G14      N/A
$$

SUPPLEMENTAL OBSERVATIONS (WEST)

CITY           SKY/WX    TMP DP  RH WIND       PRES   REMARKS
MILLERS CREEK    N/A     57  32  38 N16G25      N/A
POSSUM KINGDOM   N/A     57  30  35 N18G25      N/A
LBJ GRASSLAND    N/A     61  32  33 NW14        N/A
GRANBURY         N/A     57  34  41 NW16G28     N/A
HAMBY            N/A     55  34  44 N12G20      N/A
IVIE RESERVOIR   N/A     61  34  36 N7          N/A
COLORADO BEND    N/A     57  36  44 N8G17       N/A
$$

SUPPLEMENTAL OBSERVATIONS (EAST)

CITY           SKY/WX    TMP DP  RH WIND       PRES   REMARKS
TEXARKANA        N/A     59  34  38 NW14G24     N/A
LINDEN           N/A     61  37  41 NW10G20     N/A
LUFKIN           N/A     61  39  44 MISG        N/A
N SABINE NF      N/A     59  41  51 MISG        N/A
$$

SUPPLEMENTAL OBSERVATIONS ARE A COLLECTION OF AUTOMATED INSTRUMENTS
THAT ARE MAINTAINED BY A VARIETY OF FEDERAL AND STATE AGENCIES.
CERTAIN ELEMENTS...SUCH AS HUMIDITY VALUES AND SUSTAINED WIND
SPEEDS...MAY BE APPROXIMATED.